[[{"header":{"parameterUnit":"m.s-1","parameterCategory":1,"la1":30.2991,"la2":30.254,"lo1":-89.0895,"lo2":-89.0444,"dy":0.0017,"dx":0.0017,"nx":28,"ny":28,"refTime":"2024-08-10T21:00:00:Z","depth":0,"parameterNumber":2,"parameterNumberName":"U-component_of_WINDS"},"data":[0,0,0,0,0,0,0,0,0,0,0,0,0,0,0,0,0,0,0,0,0,0,0,0,0,0,0,0,0,0,0,0,0,0,0,0,0,0,0,0,0,0,0,0,0,0,0,0,0,0,0,0,0,0,0,0,0,0,-0.3121,-0.312,0,-0.3038,-0.3037,-0.3036,-0.2918,-0.2916,-0.2914,-0.2912,-0.2829,-0.2829,-0.2828,0,0,0,0,0,0,0,0,0,0,0,0,0,-0.3177,-0.3177,-0.3121,-0.312,-0.3119,-0.3038,-0.3037,-0.3036,-0.2919,-0.2916,-0.2914,-0.2911,-0.2829,-0.2829,-0.2828,0,0,0,0,0,0,0,0,0,0,0,0,0,-0.3129,-0.3176,-0.3121,-0.305,-0.3043,-0.3039,-0.3037,-0.3036,-0.2919,-0.2916,-0.2913,-0.291,-0.2829,-0.2829,-0.2828,-0.2886,0,0,-0.2827,-0.2826,0,0,0,0,0,0,0,0,-0.3132,-0.3128,-0.3062,-0.3055,-0.3047,-0.2985,-0.3026,-0.2986,-0.292,-0.2966,-0.2912,-0.2909,-0.2883,-0.2878,-0.287,-0.2882,-0.2879,-0.2827,-0.2826,-0.2826,-0.2826,0,0,0,0,0,0,0,-0.3136,-0.313,-0.3088,-0.3061,-0.3052,-0.3023,-0.3013,-0.3018,-0.2943,-0.2962,-0.2953,-0.2945,-0.2879,-0.287,-0.2867,-0.2878,-0.2827,-0.2826,-0.2826,-0.2826,-0.2934,-0.2937,0,0,0,0,0,0,-0.3149,-0.3134,-0.3091,-0.3085,-0.3083,-0.3024,-0.3013,-0.3008,-0.2943,-0.293,-0.2948,-0.294,-0.2873,-0.2867,-0.2863,-0.2927,-0.2826,-0.2826,-0.2825,-0.2931,-0.2935,-0.2938,0,0,0,0,0,0,-0.3151,-0.3147,-0.3094,-0.3107,-0.3098,-0.3027,-0.3022,-0.3008,-0.2999,-0.2932,-0.2918,-0.2953,-0.287,-0.2864,-0.2881,-0.2923,-0.2825,-0.2825,-0.2927,-0.2932,-0.2936,-0.3056,0,0,0,0,0,0,-0.3153,-0.3148,-0.3169,-0.3109,-0.3098,-0.3114,-0.3025,-0.3009,-0.2999,-0.2988,-0.2933,-0.2921,-0.2867,-0.2883,-0.2881,-0.292,-0.2825,-0.2923,-0.2929,-0.2935,-0.3048,-0.3065,-0.3079,0,0,0,0,0,-0.3156,-0.3207,-0.3171,-0.3166,-0.3123,-0.3116,-0.311,-0.3047,-0.3003,-0.3024,-0.298,-0.2923,-0.2919,-0.2886,-0.2882,-0.2923,-0.292,-0.2928,-0.2935,-0.3042,-0.3061,-0.3078,0,0,0,0,0,0,-0.3274,-0.3197,-0.3157,-0.319,-0.3161,-0.3096,-0.3121,-0.307,-0.3053,-0.3044,-0.2966,-0.2955,-0.2982,-0.2953,-0.2918,-0.2975,-0.2911,-0.2918,-0.2993,-0.3011,-0.3026,-0.3033,-0.2824,0,0,0,0,0,-0.3304,-0.3305,-0.3237,-0.3273,-0.326,-0.3194,-0.3188,-0.3142,-0.3108,-0.3096,-0.3053,-0.3023,-0.3015,-0.3011,-0.3,-0.3043,-0.303,-0.3069,-0.3084,-0.3097,-0.3104,-0.3125,-0.3142,-0.2962,-0.2962,-0.2961,0,0,-0.3366,-0.3324,-0.3329,-0.3296,-0.3267,-0.327,-0.3184,-0.319,-0.3191,-0.3096,-0.311,-0.3079,-0.304,-0.3071,-0.3082,-0.3048,-0.3151,-0.3106,-0.3117,-0.3117,-0.3135,-0.3152,-0.3167,-0.2966,-0.2966,-0.2965,0,0,-0.3481,-0.3449,-0.3475,-0.3448,-0.3407,-0.3362,-0.3368,-0.3312,-0.3287,-0.3299,-0.3228,-0.3229,-0.3216,-0.3192,-0.3178,-0.3283,-0.323,-0.3281,-0.336,-0.3382,-0.3396,-0.3408,-0.3447,-0.3461,-0.3288,-0.3289,-0.3289,0,-0.3563,-0.3564,-0.3495,-0.3506,-0.3493,-0.3407,-0.3433,-0.3411,-0.3368,-0.3361,-0.3323,-0.3306,-0.3274,-0.3298,-0.3324,-0.3315,-0.332,-0.3288,-0.34,-0.3411,-0.3422,-0.3457,-0.3472,-0.3295,-0.3294,-0.3294,-0.3293,0,-0.3668,-0.367,-0.3696,-0.3656,-0.3646,-0.3665,-0.3599,-0.3597,-0.3552,-0.3512,-0.3526,-0.3484,-0.3463,-0.3465,-0.3421,-0.3483,-0.3463,-0.3414,-0.3347,-0.3447,-0.3479,-0.3492,-0.3305,-0.3302,-0.33,-0.3299,0,0,-0.3856,-0.3777,-0.3788,-0.3769,-0.3717,-0.3717,-0.3732,-0.3711,-0.3711,-0.3684,-0.3695,-0.3686,-0.364,-0.3624,-0.3576,-0.3595,-0.3682,-0.3543,-0.3541,-0.3571,-0.3749,-0.3787,-0.3804,-0.3646,-0.3648,-0.365,-0.3752,0,-0.3961,-0.3981,-0.3919,-0.3956,-0.3957,-0.3874,-0.3887,-0.3857,-0.3819,-0.3814,-0.3772,-0.3768,-0.3707,-0.3697,-0.3712,-0.3669,-0.3717,-0.366,-0.3656,-0.3657,-0.367,-0.3821,-0.3861,-0.396,-0.3765,-0.3767,-0.3768,0,-0.4086,-0.4066,-0.4102,-0.4048,-0.4046,-0.4058,-0.4034,-0.4031,-0.3994,-0.3966,-0.3948,-0.3893,-0.3903,-0.3839,-0.3853,-0.3816,-0.381,-0.3789,-0.3791,-0.3789,-0.372,-0.3824,-0.399,-0.4005,-0.3787,-0.3786,-0.3784,0,-0.4221,-0.4202,-0.4221,-0.4208,-0.4144,-0.4155,-0.4129,-0.409,-0.4081,-0.406,-0.4054,-0.4035,-0.4025,-0.4011,-0.3952,-0.391,-0.3973,-0.3904,-0.395,-0.3952,-0.3968,-0.3968,-0.4137,-0.3964,-0.3963,-0.3963,-0.3963,0,-0.4345,-0.4371,-0.4281,-0.4293,-0.432,-0.4248,-0.4277,-0.4242,-0.4208,-0.4212,-0.414,-0.4146,-0.4066,-0.4064,-0.4017,-0.4037,-0.4032,-0.401,-0.3997,-0.4017,-0.402,-0.4013,-0.4005,-0.3967,-0.3966,-0.3965,-0.3965,0,-0.45,-0.4441,-0.4457,-0.4395,-0.438,-0.4403,-0.435,-0.4359,-0.4317,-0.4323,-0.4321,-0.4254,-0.4247,-0.4186,-0.4166,-0.4134,-0.4172,-0.4145,-0.4184,-0.4176,-0.4227,-0.4223,-0.4397,-0.4417,-0.4231,-0.4233,-0.4234,0,-0.4584,-0.4601,-0.4542,-0.4539,-0.4517,-0.4514,-0.4505,-0.4435,-0.4428,-0.4388,-0.4402,-0.4389,-0.4375,-0.4367,-0.4318,-0.4302,-0.4275,-0.4337,-0.4272,-0.4292,-0.4277,-0.4277,-0.4279,-0.4352,-0.4354,-0.4356,-0.4357,0,-0.4739,-0.4708,-0.4698,-0.4677,-0.4668,-0.4649,-0.4625,-0.4627,-0.455,-0.4546,-0.4538,-0.4527,-0.4506,-0.4494,-0.4469,-0.4442,-0.4388,-0.4378,-0.4388,-0.4409,-0.4431,-0.4421,-0.4223,-0.4375,-0.4373,-0.4372,-0.4371,-0.437,-0.4861,-0.4873,-0.4833,-0.4824,-0.4798,-0.4778,-0.4783,-0.4741,-0.4733,-0.471,-0.4669,-0.4667,-0.463,-0.4591,-0.4569,-0.4567,-0.4534,-0.4549,-0.4553,-0.4558,-0.4568,-0.4431,-0.4562,-0.4561,-0.4561,-0.456,-0.456,0,-0.5013,-0.4983,-0.4975,-0.4944,-0.4937,-0.4885,-0.4855,-0.4853,-0.4852,-0.4822,-0.481,-0.48,-0.4789,-0.4738,-0.4721,-0.4729,-0.4703,-0.4727,-0.4726,-0.4721,-0.4598,-0.4591,-0.4747,-0.4747,-0.4747,-0.4747,-0.4747,-0.4747,-0.5091,-0.5109,-0.5075,-0.508,-0.5049,-0.5046,-0.5034,-0.5015,-0.4991,-0.4984,-0.4973,-0.494,-0.4902,-0.4881,-0.4868,-0.4854,-0.4851,-0.4883,-0.4861,-0.4747,-0.4729,-0.4712,-0.4706,-0.4883,-0.4883,-0.4984,-0.4985,-0.4985]},{"header":{"parameterUnit":"m.s-1","parameterCategory":1,"la1":30.2991,"la2":30.254,"lo1":-89.0895,"lo2":-89.0444,"dy":0.0017,"dx":0.0017,"nx":28,"ny":28,"refTime":"2024-08-10T21:00:00:Z","depth":0,"parameterNumber":3,"parameterNumberName":"V-component_of_WINDS"},"data":[0,0,0,0,0,0,0,0,0,0,0,0,0,0,0,0,0,0,0,0,0,0,0,0,0,0,0,0,0,0,0,0,0,0,0,0,0,0,0,0,0,0,0,0,0,0,0,0,0,0,0,0,0,0,0,0,0,0,0.5881,0.5881,0,0.5858,0.5857,0.5857,0.5837,0.5836,0.5836,0.5836,0.5812,0.5812,0.5811,0,0,0,0,0,0,0,0,0,0,0,0,0,0.5908,0.5907,0.5881,0.5881,0.588,0.5858,0.5857,0.5857,0.5837,0.5836,0.5836,0.5836,0.5812,0.5812,0.5811,0,0,0,0,0,0,0,0,0,0,0,0,0,0.5891,0.5907,0.5881,0.5868,0.5866,0.5858,0.5857,0.5857,0.5837,0.5836,0.5836,0.5836,0.5812,0.5812,0.5811,0.5815,0,0,0.5809,0.5809,0,0,0,0,0,0,0,0,0.5892,0.589,0.587,0.5868,0.5867,0.585,0.5858,0.5843,0.5837,0.5848,0.5836,0.5835,0.5825,0.5823,0.582,0.5814,0.5813,0.5809,0.5809,0.5809,0.5809,0,0,0,0,0,0,0,0.5894,0.5891,0.5872,0.587,0.5868,0.5862,0.586,0.5855,0.5839,0.5847,0.5845,0.5843,0.5824,0.582,0.5819,0.5812,0.5809,0.5809,0.5808,0.5808,0.5806,0.5806,0,0,0,0,0,0,0.5897,0.5892,0.5873,0.5871,0.5879,0.5862,0.5859,0.5856,0.5839,0.5836,0.5843,0.5842,0.5822,0.582,0.5818,0.582,0.5809,0.5808,0.5808,0.5806,0.5806,0.5806,0,0,0,0,0,0,0.5897,0.5895,0.5873,0.5881,0.5878,0.5862,0.5858,0.5855,0.5851,0.5836,0.5833,0.5842,0.5821,0.5819,0.5815,0.5819,0.5808,0.5807,0.5805,0.5806,0.5806,0.5824,0,0,0,0,0,0,0.5898,0.5896,0.5897,0.5881,0.5878,0.5871,0.5858,0.5855,0.585,0.5849,0.5834,0.5832,0.5821,0.5816,0.5815,0.5818,0.5807,0.5805,0.5806,0.5806,0.5823,0.5825,0.5826,0,0,0,0,0,0.5899,0.5903,0.5897,0.5895,0.5879,0.5872,0.5869,0.5857,0.5851,0.5852,0.5842,0.5832,0.5819,0.5816,0.5814,0.5817,0.5805,0.5805,0.5806,0.5822,0.5824,0.5826,0,0,0,0,0,0,0.5919,0.5901,0.5894,0.5893,0.5884,0.5868,0.5869,0.586,0.5853,0.5851,0.5836,0.5833,0.5831,0.5824,0.5821,0.5819,0.581,0.5811,0.5823,0.5825,0.5827,0.5828,0.5806,0,0,0,0,0,0.5924,0.5919,0.5903,0.5904,0.59,0.5885,0.5881,0.5872,0.5862,0.5859,0.5848,0.5839,0.5833,0.5829,0.5822,0.5822,0.5818,0.5823,0.5825,0.5826,0.5826,0.5825,0.5826,0.5809,0.5809,0.5809,0,0,0.5933,0.5922,0.592,0.5907,0.5899,0.5895,0.5882,0.5878,0.5874,0.5858,0.5853,0.5846,0.5834,0.5832,0.5831,0.5826,0.583,0.5827,0.5828,0.5828,0.5825,0.5827,0.5829,0.5809,0.5809,0.5809,0,0,0.5946,0.5938,0.5937,0.5929,0.5917,0.5907,0.5907,0.5892,0.5886,0.5881,0.5869,0.5864,0.5854,0.5846,0.584,0.585,0.5841,0.5848,0.5858,0.5856,0.5857,0.5858,0.5861,0.5862,0.5849,0.5849,0.5849,0,0.5958,0.5951,0.5937,0.5934,0.5928,0.5913,0.5911,0.5905,0.5891,0.5887,0.5883,0.5868,0.586,0.5855,0.5857,0.5854,0.5852,0.5849,0.5858,0.5859,0.586,0.5862,0.5863,0.585,0.585,0.5849,0.5849,0,0.5966,0.5961,0.5962,0.5948,0.5943,0.5941,0.5926,0.5923,0.5914,0.5905,0.5899,0.5888,0.5879,0.5877,0.5869,0.5871,0.5868,0.5861,0.5852,0.5863,0.5864,0.5865,0.5851,0.5851,0.585,0.585,0,0,0.5991,0.597,0.597,0.5964,0.5949,0.5945,0.5941,0.5932,0.5928,0.5919,0.5915,0.5907,0.5899,0.5893,0.5884,0.5883,0.589,0.5876,0.5875,0.5878,0.589,0.5894,0.5896,0.5884,0.5884,0.5884,0.589,0,0.6001,0.5994,0.5981,0.5978,0.5972,0.5958,0.5955,0.5945,0.5936,0.593,0.592,0.5914,0.5906,0.5902,0.59,0.5889,0.5892,0.5889,0.5879,0.5879,0.5882,0.5897,0.5902,0.5908,0.5891,0.5891,0.5891,0,0.6012,0.6003,0.5999,0.5984,0.5981,0.5979,0.5968,0.5963,0.5951,0.5945,0.5938,0.5928,0.5922,0.5915,0.5908,0.5906,0.5901,0.5895,0.5895,0.5893,0.5885,0.5894,0.591,0.5911,0.5892,0.5892,0.5892,0,0.6029,0.6017,0.6012,0.6007,0.599,0.5988,0.5981,0.5969,0.5964,0.5954,0.5951,0.5941,0.5936,0.5929,0.5916,0.5912,0.5909,0.5901,0.5903,0.5904,0.5903,0.5903,0.5918,0.5902,0.5902,0.5902,0.5901,0,0.6041,0.6039,0.6019,0.6017,0.6014,0.5999,0.5997,0.5988,0.5977,0.5972,0.596,0.5955,0.5939,0.5933,0.5923,0.5917,0.5915,0.5909,0.5907,0.591,0.5911,0.5906,0.5905,0.5902,0.5902,0.5902,0.5902,0,0.6059,0.6046,0.604,0.6024,0.602,0.6018,0.6004,0.6001,0.5991,0.5985,0.5983,0.5967,0.5959,0.5946,0.5933,0.5927,0.5923,0.5919,0.5926,0.5924,0.5927,0.5926,0.5939,0.5939,0.5924,0.5924,0.5924,0,0.6067,0.6065,0.6048,0.6044,0.6037,0.603,0.6024,0.601,0.6005,0.5991,0.5989,0.598,0.5972,0.5959,0.5946,0.5937,0.5932,0.5937,0.593,0.5933,0.5931,0.5931,0.593,0.5938,0.5938,0.5938,0.5939,0,0.6082,0.6076,0.6068,0.6058,0.6051,0.6043,0.6034,0.6031,0.6014,0.6009,0.6,0.5993,0.5981,0.5971,0.596,0.5952,0.5942,0.5941,0.594,0.5944,0.5948,0.5944,0.5929,0.594,0.594,0.594,0.594,0.594,0.6095,0.6092,0.6079,0.6071,0.6062,0.6054,0.6049,0.6039,0.6031,0.602,0.6012,0.6003,0.5991,0.5975,0.5967,0.596,0.5956,0.5956,0.5956,0.5956,0.5957,0.595,0.5958,0.5958,0.5958,0.5958,0.5958,0,0.6108,0.6099,0.6092,0.6079,0.6072,0.6064,0.6053,0.6048,0.604,0.603,0.6022,0.6011,0.6002,0.5989,0.5978,0.5975,0.597,0.5973,0.5972,0.597,0.5961,0.5962,0.5977,0.5977,0.5977,0.5977,0.5977,0.5977,0.6114,0.6108,0.61,0.609,0.6081,0.6072,0.6067,0.6059,0.605,0.6039,0.6031,0.6023,0.6011,0.5999,0.599,0.5986,0.5983,0.5986,0.5981,0.5973,0.5971,0.597,0.597,0.5986,0.5986,0.599,0.599,0.5991]}]]